Lake Oroville Weather Center

Moon Phase Calendar



Lake Oroville Water Level
Online Cameras

 


      

Current Conditions in Berry Creek
8/14/2022 8:12:39 AM

68°F
Feels Like 66
Clear
Humidity
42%
Pressure
29.97"
Wind
0
Dew Point
44°F
UV Index
1/10 (Low)
Visibility
6 mi

Hourly Forecast

Date & Time Sun, Aug 14
8:00 AM
Sun, Aug 14
9:00 AM
Sun, Aug 14
10:00 AM
Sun, Aug 14
11:00 AM
Sun, Aug 14
12:00 PM
Sun, Aug 14
1:00 PM
Sun, Aug 14
2:00 PM
Sun, Aug 14
3:00 PM
Sun, Aug 14
4:00 PM
Sun, Aug 14
5:00 PM
Sun, Aug 14
6:00 PM
Sun, Aug 14
7:00 PM
Sun, Aug 14
8:00 PM
Sun, Aug 14
9:00 PM
Sun, Aug 14
10:00 PM
Sun, Aug 14
11:00 PM
Mon, Aug 15
12:00 AM
Mon, Aug 15
1:00 AM
Mon, Aug 15
2:00 AM
Mon, Aug 15
3:00 AM
Mon, Aug 15
4:00 AM
Mon, Aug 15
5:00 AM
Mon, Aug 15
6:00 AM
Mon, Aug 15
7:00 AM
Mon, Aug 15
8:00 AM
Mon, Aug 15
9:00 AM
Mon, Aug 15
10:00 AM
Mon, Aug 15
11:00 AM
Mon, Aug 15
12:00 PM
Mon, Aug 15
1:00 PM
Mon, Aug 15
2:00 PM
Mon, Aug 15
3:00 PM
Mon, Aug 15
4:00 PM
Mon, Aug 15
5:00 PM
Mon, Aug 15
6:00 PM
Mon, Aug 15
7:00 PM
Mon, Aug 15
8:00 PM
Mon, Aug 15
9:00 PM
Mon, Aug 15
10:00 PM
Mon, Aug 15
11:00 PM
Tue, Aug 16
12:00 AM
Tue, Aug 16
1:00 AM
Tue, Aug 16
2:00 AM
Tue, Aug 16
3:00 AM
Tue, Aug 16
4:00 AM
Tue, Aug 16
5:00 AM
Tue, Aug 16
6:00 AM
Tue, Aug 16
7:00 AM
Condition
Clear

Clear

Clear

Clear

Clear

Clear

Clear

Clear

Clear

Clear

Clear

Clear

Clear

Clear

Clear

Clear

Clear

Clear

Clear

Clear

Clear

Clear

Clear

Clear

Clear

Clear

Clear

Clear

Clear

Clear

Clear

Clear

Clear

Clear

Clear

Clear

Clear

Clear

Clear

Clear

Clear

Clear

Clear

Clear

Clear

Clear

Clear

Clear
Temperature 68°F71°F76°F82°F89°F97°F99°F100°F100°F100°F99°F93°F82°F78°F75°F74°F73°F71°F70°F69°F68°F67°F66°F67°F76°F85°F90°F94°F98°F100°F103°F104°F104°F103°F102°F96°F85°F81°F79°F78°F77°F75°F74°F73°F72°F71°F71°F72°F
Feels Like 66°F69°F74°F80°F85°F92°F93°F94°F94°F94°F93°F89°F80°F76°F73°F72°F70°F69°F68°F66°F65°F64°F63°F64°F74°F82°F86°F90°F92°F94°F96°F97°F97°F97°F96°F91°F82°F79°F77°F76°F74°F73°F72°F71°F70°F69°F69°F70°F
Cloudiness 0%0%0%0%0%0%0%0%0%0%0%0%0%0%0%0%0%0%0%0%0%0%0%0%0%0%0%0%0%0%0%0%0%1%0%0%0%0%0%0%0%0%0%0%0%0%0%0%
Visibility 6 mi6 mi6 mi6 mi6 mi6 mi6 mi6 mi6 mi6 mi6 mi6 mi6 mi6 mi6 mi6 mi6 mi6 mi6 mi6 mi6 mi6 mi6 mi6 mi6 mi6 mi6 mi6 mi6 mi6 mi6 mi6 mi6 mi6 mi6 mi6 mi6 mi6 mi6 mi6 mi6 mi6 mi6 mi6 mi6 mi6 mi6 mi6 mi
Precipitation 0%0%0%0%0%0%0%0%0%0%0%0%0%0%0%0%0%0%0%0%0%0%0%0%0%0%0%0%0%0%0%0%0%0%0%0%0%0%0%0%0%0%0%0%0%0%0%0%
Humidity 42%36%29%21%14%7%6%5%5%5%5%8%10%12%13%13%13%14%14%14%15%15%15%16%13%10%8%7%6%5%4%4%4%4%5%7%9%11%12%12%12%13%13%14%14%15%15%15%
Dew Point 44°F43°F41°F38°F34°F21°F19°F17°F16°F15°F16°F21°F19°F19°F19°F19°F19°F18°F18°F17°F17°F17°F17°F18°F21°F20°F20°F19°F18°F18°F16°F14°F14°F15°F16°F22°F20°F20°F20°F20°F20°F20°F20°F20°F20°F20°F20°F22°F
Pressure 29.97"29.97"29.97"29.94"29.91"29.88"29.88"29.85"29.83"29.83"29.83"29.8"29.83"29.85"29.88"29.88"29.88"29.88"29.88"29.88"29.88"29.88"29.88"29.88"29.88"29.85"29.85"29.83"29.83"29.8"29.8"29.77"29.74"29.74"29.74"29.74"29.74"29.77"29.8"29.8"29.8"29.8"29.8"29.8"29.8"29.8"29.8"29.8"
Wind Speed 3.3 mph1.5 mph4 mph5.5 mph6.3 mph7.1 mph7.4 mph7.1 mph6.6 mph6.1 mph5.3 mph3.6 mph4.4 mph7.2 mph7.6 mph7.8 mph7.7 mph7.3 mph6.9 mph6.2 mph6.2 mph6.5 mph6.4 mph6 mph3.4 mph1 mph3.6 mph5.4 mph6.6 mph6.8 mph6.7 mph6.4 mph6.1 mph5.8 mph5.3 mph3.3 mph4.8 mph7.2 mph7.4 mph7.6 mph7.4 mph7.1 mph6.6 mph6.1 mph6.2 mph6.2 mph6 mph5.8 mph
Wind
Direction
43°
NE
286°
WNW
251°
WSW
249°
WSW
252°
WSW
248°
WSW
242°
WSW
234°
SW
227°
SW
222°
SW
217°
SW
204°
SSW
86°
E
66°
ENE
65°
ENE
64°
ENE
61°
ENE
58°
ENE
55°
NE
47°
NE
50°
NE
53°
NE
49°
NE
50°
NE
44°
NE
308°
NW
250°
WSW
245°
WSW
245°
WSW
244°
WSW
239°
WSW
229°
SW
223°
SW
217°
SW
213°
SSW
200°
SSW
85°
E
65°
ENE
64°
ENE
62°
ENE
58°
ENE
55°
NE
54°
NE
47°
NE
47°
NE
46°
NE
50°
NE
53°
NE

Daily Forecast

Date High Low Precip. Humidity
Today
Aug 14

Clear
100 °F
66 °F
0%
7%
Monday
Aug 15

Clear
104 °F
66 °F
0%
5%
Tuesday
Aug 16

Clear
108 °F
71 °F
0%
5%
Wednesday
Aug 17

Clear
108 °F
76 °F
0%
8%
Thursday
Aug 18

Rain
106 °F
68 °F
38%
13%
Friday
Aug 19

Clear
106 °F
73 °F
0%
10%
Saturday
Aug 20

Clear
104 °F
73 °F
0%
9%
Sunday
Aug 21

Clear
98 °F
68 °F
0%
17%
Monday
Aug 22

Clear
97 °F
67 °F
0%
11%
Tuesday
Aug 23

Clear
95 °F
64 °F
0%
18%
Wednesday
Aug 24

Clear
101 °F
68 °F
0%
11%
Thursday
Aug 25

Clear
104 °F
71 °F
0%
11%
Friday
Aug 26

Clear
101 °F
72 °F
0%
12%
Saturday
Aug 27

Clear
91 °F
67 °F
0%
20%
Sunday
Aug 28

Clouds
84 °F
58 °F
0%
18%
Monday
Aug 29

Clear
83 °F
52 °F
0%
16%

Temperature 8-14 Day Outlook



Precipitation 8-14 Day Outlook




Quick Links
Lake Oroville News
Lake Oroville Photos
Lake Oroville Videos




About Us
Contact Us
Site Map
Search Site
Advertise With Us
   
Oroville.LakesOnline.com
THE LAKE OROVILLE WEBSITE

Copyright 2022, Lakes Online
Privacy    |    Legal